軌道要素
Epoch 2010 Oct. 11.0 TT = JDT 2455480.5
T 2010 Oct. 13.36701 TT MPCW
q 1.5790036 (2000.0) P Q
n 0.18142581 Peri. 152.44592 -0.91501982 -0.40326274
a 3.0903192 Node 3.82120 +0.33362323 -0.77158833
e 0.4890484 Incl. 9.37702 +0.22679126 -0.49196607
P 5.43
From 494 observations 2010 Nov. 3-2016 Feb. 5, mean residual 0".7.
|